This demonstration page uses our WeatherBlox Daily Observations layout. Learn more.

Left ArrowRight Arrow

Hourly Observations for September 20, 2015

Temp ( °F °C ) Dew Point ( °F °C ) Humidity (%) Winds ( mph kmh ) Pressure ( in mb ) Visibility ( mi km ) Precip ( " mm )
12:53 am 00:53 Clear 67 19.4 47 8.3 49 49 Calm 29.82 1010 10 16 0.00 0.00
1:53 am 01:53 Clear 65 18.3 50 10 59 59 Calm 29.83 1010 10 16 0.00 0.00
2:53 am 02:53 Clear 64 17.8 50 10 60 60 Calm 29.83 1010 10 16 0.00 0.00
3:53 am 03:53 Clear 62 16.7 50 10 65 65 Calm 29.83 1010 10 16 0.00 0.00
4:53 am 04:53 Clear 61 16.1 50 10 67 67 Calm 29.84 1011 10 16 0.00 0.00
5:53 am 05:53 Clear 59 15 49 9.4 69 69 Calm 29.85 1011 10 16 0.00 0.00
6:53 am 06:53 Clear 57 13.9 49 9.4 74 74 Calm 29.87 1012 10 16 0.00 0.00
7:53 am 07:53 Sunny 62 16.7 52 11.1 70 70 Calm 29.89 1012 10 16 0.00 0.00
8:53 am 08:53 Sunny 67 19.4 50 10 55 55 Calm 29.90 1013 10 16 0.00 0.00
9:53 am 09:53 Sunny 77 25 50 10 39 39 Calm 29.91 1013 10 16 0.00 0.00
10:53 am 10:53 Sunny 82 27.8 46 7.8 28 28 Calm 29.90 1013 10 16 0.00 0.00
11:53 am 11:53 Sunny 87 30.6 43 6.1 21 21 Calm 29.89 1012 10 16 0.00 0.00
12:53 pm 12:53 Sunny 91 32.8 41 5 17 17 Calm 29.87 1012 10 16 0.00 0.00
1:53 pm 13:53 Sunny 93 33.9 41 5 16 16 VRB 3 6 29.85 1011 10 16 0.00 0.00
2:53 pm 14:53 Sunny 95 35 39 3.9 14 14 VRB 3 6 29.83 1010 10 16 0.00 0.00
3:53 pm 15:53 Sunny 97 36.1 36 2.2 12 12 Calm 29.80 1009 10 16 0.00 0.00
4:53 pm 16:53 Sunny 97 36.1 40 4.4 14 14 VRB 6 9 29.79 1009 10 16 0.00 0.00
5:53 pm 17:53 Sunny 97 36.1 40 4.4 14 14 SSE 6 9 29.78 1008 10 16 0.00 0.00
6:53 pm 18:53 Sunny 92 33.3 45 7.2 20 20 SSE 3 6 29.77 1008 10 16 0.00 0.00
7:53 pm 19:53 Clear 85 29.4 47 8.3 27 27 Calm 29.78 1009 10 16 0.00 0.00
8:53 pm 20:53 Clear 78 25.6 48 8.9 35 35 NW 6 9 29.80 1009 10 16 0.00 0.00
9:53 pm 21:53 Clear 76 24.4 49 9.4 39 39 Calm 29.80 1009 10 16 0.00 0.00
10:53 pm 22:53 Clear 73 22.8 51 10.6 46 46 N 5 7 29.81 1009 10 16 0.00 0.00
11:53 pm 23:53 Clear 72 22.2 49 9.4 44 44 Calm 29.81 1010 10 16 0.00 0.00

Powered by AerisWeather